Flag Weather past 2 weeks in Clarington, Ontario, Canada

Now
45 °F

Overcast.


Feels Like: 45 °F
Forecast: 40 / 51 °F
Wind: 2 mph from Southeast

Location: Peterborough Airport

Current Time: Nov 23, 2014 at 7:22:47 PM

Latest Report: Nov 23, 2014 at 6:00 PM


Visibility: 9 mi

Pressure: 29.88 "Hg

Humidity: 87%

Dew point: 41 °F

Location of ClaringtonLocation

Historic Weather in Clarington — Graph

°F

Clarington temperature yesterday

Maximum temperature yesterday: 41 °F (at 11:00 PM)
Minimum temperature yesterday: 19 °F (at 1:00 AM)
Average temperature yesterday: 33 °F

Past Weeks' High & Low Weather Summary

 TemperatureHumidityPressure
High63 °F (Nov 11, 2:00 PM)100% (Nov 8, 7:00 PM)30.42 "Hg (Nov 8, 7:00 PM)
Low10 °F (Nov 21, 7:00 AM)42% (Nov 11, 2:00 PM)29.51 "Hg (Nov 17, 2:57 PM)
Average31 °F81%29.95 "Hg
* Reported Nov 8 6:00 PM — Nov 23 6:00 PM, Clarington, Weather by CustomWeather, © 2014

Note: Actual official high and low records may vary slightly from our data, if they occured in-between our weather recording intervals... More about our weather records

Advertising

Clarington weather history for previous 24 hours

 ConditionsComfort  
Time TempWeatherWind HumidityBarometerVisibility
6:00 PM
Nov 23
45 °FOvercast.2 mph87%29.88 "Hg9 mi
5:00 PM45 °FOvercast.6 mph93%29.89 "Hg9 mi
4:00 PM45 °FLow clouds.5 mph93%29.90 "Hg9 mi
3:00 PM45 °FLow clouds.7 mph93%29.93 "Hg9 mi
2:00 PM46 °FMostly cloudy.7 mph87%29.94 "Hg9 mi
1:00 PM46 °FOvercast.9 mph87%29.97 "Hg9 mi
12:00 PM45 °FOvercast.8 mph93%30.00 "Hg9 mi
11:02 AM45 °FFog.6 mph93%30.01 "Hg6 mi
10:00 AM43 °FFog.6 mph93%30.01 "Hg2 mi
9:00 AM41 °FFog.6 mph100%30.01 "Hg2 mi
8:00 AM39 °FFog.7 mph100%30.01 "Hg1 mi
7:00 AM39 °FFog.5 mph100%29.99 "Hg1 mi
6:45 AM37 °FFog.2 mph100%29.99 "Hg1 mi
6:00 AM39 °FFog.2 mph100%29.97 "Hg1 mi
5:56 AM39 °FFog.No wind100%29.97 "Hg1 mi
5:00 AM41 °FFog.2 mph100%29.96 "Hg2 mi
4:00 AM41 °FFog.3 mph100%29.95 "Hg2 mi
3:00 AM41 °FFog.5 mph100%29.95 "Hg2 mi
2:53 AM41 °FFog.6 mph100%29.96 "Hg2 mi
2:00 AM41 °FFog.6 mph100%29.95 "Hg2 mi
1:00 AM41 °FFog.8 mph100%29.93 "Hg3 mi
12:00 AM41 °FLight rain. Fog.8 mph93%29.93 "Hg4 mi
11:00 PM
Nov 22
41 °FLight rain. Fog.6 mph93%29.92 "Hg3 mi
10:00 PM39 °FFog.6 mph100%29.92 "Hg4 mi
9:56 PM39 °FFog.6 mph100%29.92 "Hg3 mi
9:00 PM39 °FRain. Fog.6 mph100%29.92 "Hg2 mi
8:00 PM39 °FLight rain. Fog.6 mph93%29.94 "Hg3 mi
7:00 PM39 °FFog.8 mph93%29.93 "Hg3 mi
Weather by CustomWeather, © 2014

See weather overviewHow to use our weather pages